STARLINK-11144, 59955

Orbit data source: Space-Track

STARLINK-11144, 59955 is a payload satellite owned by SpaceX/Seattle (US) in LEO that was launched on Wed, 05 Jun 2024 UTC via an FALCON 9 launch vehicle from the Air Force Eastern Test Range (AFETR). Payload-class satellites include a variety of spacecraft equipped with specific instruments for various scientific and technological missions. These include communications satellites like Starlink; space stations such as the ISS; scientific satellites like the Hubble; Earth observation satellites from companies like Planet Labs, Umbra, and HawkEye 360; GPS; miniature CubeSats for education and research; and military/defense satellites.

Loading next visibility...
Identifier
59955, 2024-107L
Orbit
LEO
Country
Flag of USUS
Related business
Manufacturer
SpaceX/Seattle
Mission
Operational spacecraft
Bus & Motor
STARLINK V2MD, Unknown motor
Mass
960 kg wet, ~910 kg dry
Launch date (UTC)
2024-06-05 (1 year ago)
Launch vehicle
FALCON 9
Launch site
Air Force Eastern Test Range (AFETR)
Object type
Payload
Rocket body
Debris
Shape & HBR
Unknown
Radar Cross Section
Large (>1 m²)

Expand to show TLE details & history
Last TLE update: 1 day ago

TLE from 1 day ago
0 STARLINK-11144
1 59955U 24107L   25260.60452277 -.00001922  00000-0 -11003-4 0  9990
2 59955  53.1594  24.3208 0001049  87.5399 272.5739 15.69716933 75025
Epoch: 2025-09-17T14:30Z
TLE epoch observation values (Epoch: 2025-09-17T14:30:30.767Z)
Latitude
-0.00001°
Longitude
169.91451°
Altitude
360.59 km
Speed
7.694 km/s
True Right ascension
01h 37m 16s
True Declination
0° 00' 00"
Sunlit
Object was in full shadow at epoch
Visualization orbit readout
Latitude
Unknown
Longitude
Unknown
Altitude
Unknown
Speed
Unknown
Apparent Right ascension
Unknown
Apparent Declination
Unknown
Sunlit
N/A
Visualization observer readout
Local Sidereal Time
13:53:34
Azimuth
Unknown
Elevation
Unknown
Doppler factor
Unknown
Orbital elements
Apogee altitude
360.675 km
Perigee altitude
359.261 km
Semi-major axis
6,738.105 km
Eccentricity
0.0001
Inclination
53.1594°
RAAN
24.3208°
Arg. of periapsis
87.5399°
True anomaly
272.56189°
Mean anomaly
272.5739°
Eccentric anomaly
272.5679°
Mean motion
3.92407 °/min
Orbital period
91.74 mins
BSTAR
-0.000011003
Loading maneuver chart data...
Computing Atmospheric mass density...
Loading historical data...
Loading historical data...
Loading historical data...
Loading historical data...
Loading historical data...
Loading historical data...
Loading historical data...

Documentation

Showing up to 5 results
|